Regional Weather Roundup
Issued by NWS

Home | Current Version | Previous Version | Text Only | Print | Product List | Glossary On
Versions: 1 2 3 4 5 6 7 8 9 10 11 12 13 14 15 16 17 18 19 20 21 22 23 24 25 26 27 28 29 30 31 32 33 34 35 36 37 38 39 40 41 42 43 44 45 46 47 48 49 50
000
ASUS43 KFSD 252110
RWRSD

WEATHER ROUNDUP FOR SOUTH DAKOTA
NATIONAL WEATHER SERVICE SIOUX FALLS SD
400 PM CDT FRI JUL 25 2014

NOTE: "FAIR" INDICATES FEW OR NO CLOUDS BELOW 12,000 FEET WITH NO
SIGNIFICANT WEATHER AND/OR OBSTRUCTIONS TO VISIBILITY.


SDZ001>005-009-010-012>017-252200-
NORTHWEST AND NORTH CENTRAL SOUTH DAKOTA

CITY           SKY/WX    TMP DP  RH WIND       PRES   REMARKS
BUFFALO          N/A     81  47  30 S6        29.83F
FAITH            N/A     83  44  25 VRB5      29.88F
MOBRIDGE       SUNNY     84  48  28 N10       29.81F
$$

SDZ012>016-024>037-041>051-057-063-072>074-252200-
SOUTHWEST AND SOUTH CENTRAL SOUTH DAKOTA

CITY           SKY/WX    TMP DP  RH WIND       PRES   REMARKS
RAPID CTY ARPT SUNNY     79  50  36 SE8       29.91F
PIERRE         SUNNY     88  46  23 N12G20    29.82S
CUSTER         SUNNY     78  46  32 VRB7      30.05F
ELLSWORTH AFB  SUNNY     81  48  31 S10       29.91F
PHILIP         SUNNY     90  43  19 VRB6      29.86F
PINE RIDGE     SUNNY     81  51  35 E7        29.93F
WINNER         FAIR      93  62  35 N10       29.82F
$$

SDZ004>011-016>023-039-040-252200-
NORTHEAST SOUTH DAKOTA

CITY           SKY/WX    TMP DP  RH WIND       PRES   REMARKS
ABERDEEN       CLOUDY    77  68  73 NE8       29.80F
WATERTOWN      PTSUNNY   77  68  73 NW10      29.81R
SISSETON         N/A     75  69  81 NW12      29.78S
$$

SDZ017-020-022-023-036>040-048>070-252200-
SOUTHEAST SOUTH DAKOTA

CITY           SKY/WX    TMP DP  RH WIND       PRES   REMARKS
SIOUX FALLS    PTSUNNY   86  72  62 W6        29.78F
HURON          CLOUDY    79  68  69 N16       29.79F
CHAMBERLAIN    MOSUNNY   87  69  54 N10       29.80F
MITCHELL       MOSUNNY   87  71  58 N13       29.79R
YANKTON        MOSUNNY   88  73  62 E7        29.76F HX  96
$$

ABBREVIATIONS USED IN REMARKS
   TC - TEMPERATURE IN CELSIUS
  WCI - WIND CHILL INDEX
   HX - HEAT INDEX
  VSB - VISIBILITY



USA.gov is the U.S. government's official web portal to all federal, state and local government web resources and services.